AR731 Weather Reports


Display with metric or nautical units.
time (UTC)temp
F
wind
direction
speed
MPH
gust
MPH
rain 1hr
in
rain 24hr
in
rain mn
in
humidity
%
barometer
mb
20210225104552 18 298 0.0 0.0 0.00 0.00 0.00 89 1025.5
20210225103114 17 298 0.0 0.0 0.00 0.00 0.00 89 1025.5
20210225101628 16 298 0.0 0.0 0.00 0.00 0.00 89 1025.4
20210225100205 15 298 0.0 0.0 0.00 0.00 0.00 89 1025.2
20210225094625 14 298 0.0 0.0 0.00 0.00 0.00 89 1025.1
20210225091540 13 298 0.0 0.0 0.00 0.00 0.00 89 1025.0
20210225090030 13 298 0.0 0.0 0.00 0.00 0.00 89 1025.0
20210225084638 13 298 0.0 0.0 0.00 0.00 0.00 88 1025.2
20210225083141 14 298 0.0 0.0 0.00 0.00 0.00 89 1025.2
20210225081913 14 298 0.0 0.0 0.00 0.00 0.00 89 1025.1
20210225080155 14 298 0.0 0.0 0.00 0.00 0.00 89 1025.2
20210225074656 15 298 0.0 0.0 0.00 0.00 0.00 89 1025.0
20210225073156 15 298 0.0 0.0 0.00 0.00 0.00 89 1025.0
20210225070050 15 298 0.0 0.0 0.00 0.00 0.00 89 1024.8
20210225064622 16 298 0.0 0.0 0.00 0.00 0.00 89 1024.8
20210225063139 16 298 0.0 0.0 0.00 0.00 0.00 89 1024.8
20210225061616 16 298 0.0 0.0 0.00 0.00 0.00 89 1024.8
20210225060051 17 298 0.0 0.0 0.00 0.00 0.00 89 1024.8
20210225054522 17 298 0.0 0.0 0.00 0.00 0.00 89 1024.8
20210225053205 17 298 0.0 0.0 0.00 0.00 0.00 89 1024.8
20210225051559 18 298 0.0 0.0 0.00 0.00 0.00 89 1024.7
20210225050249 18 298 0.0 0.0 0.00 0.00 0.00 89 1024.7
20210225044609 18 298 0.0 0.0 0.00 0.00 0.00 89 1024.7
20210225043126 19 298 0.0 0.0 0.00 0.00 0.00 89 1024.6
20210225041554 19 298 0.0 0.0 0.00 0.00 0.00 88 1024.7
20210225040114 20 298 0.0 0.0 0.00 0.00 0.00 88 1024.6
20210225034731 20 298 0.0 0.0 0.00 0.00 0.00 88 1024.2
20210225033326 21 298 0.0 0.0 0.00 0.00 0.00 88 1024.0
20210225031704 22 298 0.0 0.0 0.00 0.00 0.00 87 1023.7
20210225030048 22 298 0.0 0.0 0.00 0.00 0.00 86 1023.6
20210225024722 23 298 0.0 0.0 0.00 0.00 0.00 86 1023.4
20210225023030 24 298 0.0 0.0 0.00 0.00 0.00 85 1023.0
20210225021609 25 298 0.0 0.0 0.00 0.00 0.00 85 1022.8
20210225020213 25 298 0.0 0.0 0.00 0.00 0.00 85 1022.6
20210225014604 25 298 0.0 0.0 0.00 0.00 0.00 85 1022.5
20210225013254 25 298 0.0 0.0 0.00 0.00 0.00 84 1022.4
20210225011639 26 298 0.0 0.0 0.00 0.00 0.00 82 1021.9
20210225010029 27 298 0.0 0.0 0.00 0.00 0.00 81 1021.8
20210225004636 28 298 0.0 0.0 0.00 0.00 0.00 79 1021.3
20210225003142 29 298 0.0 0.0 0.00 0.00 0.00 76 1021.1
20210225001620 31 298 0.0 0.0 0.00 0.00 0.00 73 1020.8
20210225000157 33 298 0.0 0.0 0.00 0.00 0.00 72 1020.3
20210224234625 35 298 2.0 0.0 0.00 0.00 0.00 68 1020.1
20210224233106 35 290 0.0 0.0 0.00 0.00 0.00 69 1019.7
20210224231705 37 288 0.0 0.0 0.00 0.00 0.00 73 1019.5
20210224230113 38 282 1.0 0.0 0.00 0.00 0.00 65 1019.2
20210224224622 39 289 2.0 0.0 0.00 0.00 0.00 63 1019.2
20210224223047 40 295 2.0 0.0 0.00 0.00 0.00 60 1019.1
20210224221721 40 317 3.0 0.0 0.00 0.00 0.00 59 1019.0
20210224220205 40 325 3.0 0.0 0.00 0.00 0.00 60 1018.6
20210224214719 40 321 4.0 0.0 0.00 0.00 0.00 59 1018.5
20210224213045 40 277 5.0 0.0 0.00 0.00 0.00 60 1018.1
20210224211736 41 290 4.0 0.0 0.00 0.00 0.00 57 1017.9
20210224210036 42 315 2.0 0.0 0.00 0.00 0.00 57 1017.5
20210224204851 41 304 2.0 0.0 0.00 0.00 0.00 57 1017.4
20210224203136 41 288 2.0 0.0 0.00 0.00 0.00 59 1017.0
20210224201554 42 304 3.0 0.0 0.00 0.00 0.00 59 1016.9
20210224200135 41 301 2.0 0.0 0.00 0.00 0.00 62 1016.7
20210224194541 40 298 3.0 0.0 0.00 0.00 0.00 65 1016.5
20210224193244 39 308 2.0 0.0 0.00 0.00 0.00 66 1016.4
20210224191612 40 298 3.0 0.0 0.00 0.00 0.00 66 1016.1
20210224190046 41 302 4.0 0.0 0.00 0.00 0.00 64 1015.9
20210224184543 41 301 2.0 0.0 0.00 0.00 0.00 63 1015.8
20210224183131 40 19 4.0 0.0 0.00 0.00 0.00 66 1015.7
20210224181631 38 308 4.0 0.0 0.00 0.00 0.00 70 1015.3
20210224180055 40 308 4.0 0.0 0.00 0.00 0.00 68 1015.2
20210224174550 39 298 3.0 0.0 0.00 0.00 0.00 71 1014.8
20210224173151 39 304 2.0 0.0 0.00 0.00 0.00 71 1014.4
20210224171801 38 5 4.0 0.0 0.00 0.00 0.00 71 1014.0
20210224170109 39 316 3.0 0.0 0.00 0.00 0.00 73 1013.5
20210224164547 40 314 3.0 0.0 0.00 0.00 0.00 71 1013.1
20210224163107 41 303 3.0 0.0 0.00 0.00 0.00 72 1012.6
20210224161608 39 282 3.0 0.0 0.00 0.00 0.00 77 1012.3
20210224160042 37 288 3.0 0.0 0.00 0.00 0.00 81 1012.2
20210224154809 37 344 2.0 0.0 0.00 0.00 0.00 83 1012.0
20210224153058 36 305 3.0 0.0 0.00 0.00 0.00 84 1011.7
20210224151541 36 22 2.0 0.0 0.00 0.00 0.00 86 1011.4
20210224150239 35 319 2.0 0.0 0.00 0.00 0.00 86 1010.9
20210224144626 35 360 3.0 0.0 0.00 0.00 0.00 88 1010.2
20210224143052 35 338 3.0 0.0 0.00 0.00 0.00 89 1009.8
20210224141615 34 25 2.0 0.0 0.00 0.00 0.00 91 1009.3
20210224140043 33 324 1.0 0.0 0.00 0.00 0.00 93 1008.7
20210224134749 31 298 0.0 0.0 0.00 0.00 0.00 92 1008.1
20210224133203 31 281 0.0 0.0 0.00 0.00 0.00 92 1007.7
20210224131552 31 281 0.0 0.0 0.00 0.00 0.00 91 1007.4
20210224130243 30 281 0.0 0.0 0.00 0.00 0.00 91 1007.2
20210224124546 30 281 0.0 0.0 0.00 0.00 0.00 91 1006.7
20210224123149 29 281 0.0 0.0 0.00 0.00 0.00 91 1006.5
20210224121548 29 281 1.0 0.0 0.00 0.00 0.00 92 1006.2
20210224120023 28 281 0.0 0.0 0.00 0.00 0.00 92 1006.1
20210224113125 25 127 0.0 0.0 0.00 0.00 0.00 92 1005.1
20210224111558 24 127 0.0 0.0 0.00 0.00 0.00 92 1005.1
20210224110043 24 127 0.0 0.0 0.00 0.00 0.00 91 1004.6